[[{"header":{"parameterUnit":"m.s-1","parameterCategory":1,"la1":30.2991,"la2":30.254,"lo1":-89.0895,"lo2":-89.0444,"dy":0.0017,"dx":0.0017,"nx":28,"ny":28,"refTime":"2024-05-27T09:00:00:Z","depth":0,"parameterNumber":2,"parameterNumberName":"U-component_of_WINDS"},"data":[0,0,0,0,0,0,0,0,0,0,0,0,0,0,0,0,0,0,0,0,0,0,0,0,0,0,0,0,0,0,0,0,0,0,0,0,0,0,0,0,0,0,0,0,0,0,0,0,0,0,0,0,0,0,0,0,0,0,3.8459,3.846,0,3.8541,3.8542,3.8543,3.8436,3.8432,3.8428,3.8424,3.8512,3.8517,3.8523,0,0,0,0,0,0,0,0,0,0,0,0,0,3.8211,3.8216,3.8459,3.846,3.8461,3.8541,3.8542,3.8543,3.8437,3.8432,3.8427,3.8423,3.851,3.8517,3.8524,0,0,0,0,0,0,0,0,0,0,0,0,0,3.8309,3.8218,3.8459,3.8417,3.8414,3.8541,3.8542,3.8544,3.8438,3.8432,3.8426,3.842,3.8507,3.8516,3.8525,3.8697,0,0,3.8552,3.8556,0,0,0,0,0,0,0,0,3.8304,3.8318,3.8422,3.842,3.8417,3.8472,3.8487,3.8595,3.8439,3.8429,3.8424,3.8418,3.8503,3.8512,3.8541,3.8701,3.8705,3.8553,3.8558,3.8562,3.8565,0,0,0,0,0,0,0,3.8297,3.8314,3.8491,3.8424,3.8421,3.8395,3.8403,3.8507,3.8498,3.8429,3.8422,3.8433,3.8501,3.8532,3.8542,3.8706,3.8553,3.856,3.8566,3.8569,3.901,3.9016,0,0,0,0,0,0,3.8295,3.8309,3.8489,3.8494,3.8345,3.8404,3.8413,3.8461,3.8496,3.8496,3.8438,3.8427,3.852,3.8532,3.8545,3.8747,3.8562,3.857,3.8575,3.9004,3.9011,3.9018,0,0,0,0,0,0,3.829,3.8312,3.8485,3.8399,3.842,3.8415,3.847,3.8465,3.8496,3.8503,3.8501,3.8471,3.8516,3.8532,3.8659,3.8748,3.8574,3.8582,3.8996,3.9006,3.9015,3.9154,0,0,0,0,0,0,3.8283,3.8311,3.8375,3.8402,3.8425,3.8599,3.8475,3.8471,3.8512,3.8499,3.8534,3.8534,3.8512,3.8646,3.8668,3.8757,3.8589,3.8988,3.9,3.9012,3.9141,3.9167,3.9189,0,0,0,0,0,3.8275,3.8412,3.8379,3.8402,3.8505,3.8604,3.8617,3.8589,3.8519,3.8585,3.8589,3.8533,3.8736,3.866,3.8684,3.8777,3.8982,3.8997,3.9011,3.913,3.9162,3.9188,0,0,0,0,0,0,3.8398,3.8415,3.8378,3.8529,3.8566,3.8586,3.8667,3.8623,3.8681,3.8667,3.863,3.8639,3.8775,3.8789,3.8705,3.8945,3.8847,3.8867,3.893,3.896,3.8984,3.8977,3.8597,0,0,0,0,0,3.8442,3.852,3.8531,3.8663,3.8683,3.8672,3.8714,3.8689,3.8726,3.8741,3.8755,3.8793,3.8865,3.8914,3.8981,3.9143,3.9149,3.9219,3.9243,3.9262,3.9279,3.9365,3.9396,3.9065,3.9065,3.9065,0,0,3.8535,3.8554,3.8606,3.8688,3.8713,3.8795,3.8686,3.8777,3.8837,3.8755,3.8875,3.8887,3.8928,3.9073,3.9138,3.9089,3.9372,3.9281,3.9296,3.9303,3.9383,3.9414,3.9442,3.9075,3.9073,3.9071,0,0,3.8745,3.8768,3.8879,3.8907,3.8947,3.8938,3.8966,3.8992,3.8996,3.9116,3.9056,3.9128,3.9253,3.9284,3.9317,3.9539,3.9489,3.9562,3.9686,3.977,3.9796,3.9819,3.9897,3.9925,3.9579,3.958,3.958,0,3.8856,3.8976,3.8942,3.9037,3.9075,3.9004,3.9116,3.9145,3.9205,3.9233,3.9178,3.9333,3.9355,3.9506,3.956,3.9589,3.9618,3.9557,3.9795,3.9817,3.9838,3.9912,3.9942,3.9588,3.9587,3.9586,3.9585,0,3.9109,3.9193,3.9278,3.9337,3.9384,3.9488,3.947,3.9523,3.9494,3.9492,3.9614,3.9639,3.9709,3.9743,3.9717,3.9891,3.9859,3.98,3.9701,3.9879,3.9947,3.9975,3.96,3.9597,3.9594,3.9592,0,0,3.9398,3.9437,3.9468,3.9493,3.9532,3.9597,3.9697,3.9764,3.9809,3.9854,3.9936,4.0044,3.9989,4.0026,4.0003,4.0077,4.0249,4.0008,4.0009,4.0051,4.0441,4.0483,4.0517,4.0217,4.0222,4.0227,4.0436,0,3.9607,3.9779,3.9752,3.9919,3.9996,3.9929,4.0016,4.005,4.0051,4.0117,4.0118,4.0194,4.0117,4.0139,4.0209,4.0213,4.0327,4.0198,4.0293,4.0297,4.0283,4.0553,4.0598,4.0795,4.0463,4.0468,4.0471,0,3.9874,3.9926,4.0101,4.0126,4.0157,4.0236,4.0295,4.0359,4.0396,4.0391,4.0432,4.0395,4.0495,4.0396,4.0533,4.0446,4.0484,4.0492,4.0499,4.0505,4.0394,4.0565,4.0858,4.0887,4.0513,4.051,4.0507,0,4.0066,4.018,4.0298,4.0322,4.0356,4.0412,4.0429,4.046,4.0502,4.0554,4.0581,4.0645,4.0679,4.073,4.0711,4.064,4.0852,4.0751,4.085,4.0851,4.0896,4.0894,4.1198,4.0924,4.0924,4.0923,4.0922,0,4.0301,4.041,4.0385,4.0458,4.0577,4.0546,4.0665,4.0674,4.0702,4.0775,4.0723,4.0793,4.0764,4.0833,4.0819,4.0934,4.095,4.0949,4.0944,4.0953,4.0953,4.0976,4.0961,4.0931,4.0929,4.0928,4.0926,0,4.0535,4.0523,4.0647,4.0668,4.0676,4.0763,4.0781,4.0849,4.0846,4.094,4.096,4.0955,4.1033,4.1019,4.1106,4.1096,4.124,4.1219,4.1227,4.1221,4.1321,4.1311,4.1649,4.1691,4.1392,4.1395,4.1397,0,4.0685,4.0766,4.0796,4.0841,4.0861,4.0935,4.0977,4.0949,4.0995,4.1043,4.1105,4.1178,4.1234,4.1362,4.1367,4.1432,4.1411,4.1525,4.1421,4.1427,4.1411,4.1406,4.1413,4.1545,4.1549,4.1552,4.1554,0,4.0952,4.0942,4.1004,4.1065,4.1116,4.1163,4.1204,4.1244,4.122,4.1275,4.1353,4.1397,4.1484,4.1557,4.1618,4.1635,4.1591,4.1587,4.1613,4.1622,4.1623,4.1622,4.1282,4.1579,4.1576,4.1575,4.1573,4.1572,4.1147,4.1216,4.1247,4.1318,4.1346,4.1386,4.1451,4.1455,4.152,4.1588,4.1568,4.1657,4.1691,4.1768,4.1793,4.1862,4.1819,4.1858,4.1867,4.1876,4.1887,4.1614,4.1873,4.1872,4.1872,4.1871,4.187,0,4.141,4.1426,4.1492,4.1551,4.1607,4.156,4.1603,4.1653,4.1731,4.1767,4.1823,4.1913,4.1983,4.1993,4.206,4.2113,4.2094,4.2131,4.2126,4.213,4.1923,4.1892,4.2145,4.2145,4.2145,4.2145,4.2145,4.2145,4.1553,4.1667,4.166,4.1787,4.1803,4.1889,4.1918,4.1954,4.1981,4.2083,4.2141,4.2147,4.2172,4.224,4.2302,4.2303,4.2329,4.2374,4.2368,4.2173,4.2145,4.2119,4.209,4.2381,4.2381,4.2569,4.2571,4.2572]},{"header":{"parameterUnit":"m.s-1","parameterCategory":1,"la1":30.2991,"la2":30.254,"lo1":-89.0895,"lo2":-89.0444,"dy":0.0017,"dx":0.0017,"nx":28,"ny":28,"refTime":"2024-05-27T09:00:00:Z","depth":0,"parameterNumber":3,"parameterNumberName":"V-component_of_WINDS"},"data":[0,0,0,0,0,0,0,0,0,0,0,0,0,0,0,0,0,0,0,0,0,0,0,0,0,0,0,0,0,0,0,0,0,0,0,0,0,0,0,0,0,0,0,0,0,0,0,0,0,0,0,0,0,0,0,0,0,0,0.52,0.5201,0,0.5247,0.5247,0.5248,0.5235,0.5234,0.5233,0.5232,0.5282,0.5284,0.5286,0,0,0,0,0,0,0,0,0,0,0,0,0,0.5102,0.5104,0.52,0.5201,0.5201,0.5246,0.5247,0.5248,0.5235,0.5234,0.5233,0.5232,0.5281,0.5284,0.5286,0,0,0,0,0,0,0,0,0,0,0,0,0,0.5146,0.5104,0.52,0.52,0.5201,0.5246,0.5247,0.5248,0.5236,0.5234,0.5233,0.5231,0.528,0.5283,0.5287,0.5335,0,0,0.5297,0.5298,0,0,0,0,0,0,0,0,0.5143,0.515,0.52,0.52,0.5201,0.5234,0.523,0.5277,0.5236,0.5222,0.5232,0.5231,0.5267,0.5271,0.5283,0.5337,0.5339,0.5297,0.5299,0.53,0.5301,0,0,0,0,0,0,0,0.514,0.5148,0.5218,0.52,0.5201,0.5199,0.5203,0.5239,0.5252,0.5224,0.5223,0.5228,0.5267,0.528,0.5284,0.534,0.5297,0.53,0.5302,0.5303,0.5436,0.5437,0,0,0,0,0,0,0.5137,0.5145,0.5217,0.522,0.5168,0.5202,0.5207,0.5225,0.5252,0.5254,0.5229,0.5228,0.5275,0.528,0.5286,0.5344,0.53,0.5303,0.5305,0.5434,0.5436,0.5438,0,0,0,0,0,0,0.5135,0.5143,0.5215,0.5182,0.5191,0.5205,0.5225,0.5226,0.5239,0.5256,0.5258,0.524,0.5274,0.5281,0.5323,0.5346,0.5305,0.5308,0.5432,0.5435,0.5437,0.5461,0,0,0,0,0,0,0.5132,0.5142,0.5161,0.5183,0.5193,0.5251,0.5226,0.5228,0.5245,0.5243,0.5267,0.527,0.5274,0.5318,0.5326,0.5349,0.531,0.5431,0.5434,0.5436,0.5458,0.5464,0.5469,0,0,0,0,0,0.5128,0.5166,0.5162,0.517,0.5216,0.5252,0.5258,0.5262,0.5246,0.5265,0.5276,0.5269,0.5342,0.5322,0.5331,0.5356,0.5429,0.5433,0.5436,0.5456,0.5463,0.5469,0,0,0,0,0,0,0.5147,0.5169,0.5164,0.521,0.5229,0.525,0.5274,0.5269,0.5293,0.529,0.5294,0.5299,0.5342,0.5353,0.5331,0.5404,0.5383,0.5389,0.5395,0.5402,0.5407,0.5404,0.5313,0,0,0,0,0,0.5157,0.5184,0.5201,0.524,0.525,0.526,0.5276,0.5277,0.5297,0.5305,0.5319,0.5339,0.5367,0.5385,0.5411,0.5459,0.5465,0.5481,0.5486,0.549,0.5495,0.5521,0.5529,0.5449,0.5449,0.5449,0,0,0.5177,0.5192,0.5209,0.5244,0.5259,0.5288,0.5267,0.5298,0.5319,0.531,0.535,0.5361,0.5384,0.5429,0.5449,0.5439,0.5518,0.5495,0.5498,0.5501,0.5526,0.5533,0.554,0.5452,0.5451,0.5451,0,0,0.5228,0.5242,0.5275,0.529,0.5313,0.5319,0.5327,0.5349,0.5355,0.5395,0.5389,0.5414,0.5461,0.5478,0.5492,0.5548,0.5543,0.5557,0.5584,0.561,0.5616,0.5622,0.5642,0.5649,0.5561,0.5562,0.5562,0,0.525,0.5292,0.5294,0.5325,0.5341,0.5333,0.5367,0.5382,0.5412,0.5423,0.5412,0.547,0.5485,0.5534,0.5547,0.5559,0.5569,0.5554,0.5615,0.5621,0.5626,0.5645,0.5653,0.5563,0.5563,0.5563,0.5563,0,0.5318,0.5347,0.5371,0.54,0.5419,0.5451,0.5458,0.5477,0.5476,0.5484,0.5524,0.5542,0.5571,0.5583,0.5582,0.5631,0.5624,0.5614,0.5593,0.5635,0.5653,0.566,0.5565,0.5565,0.5564,0.5564,0,0,0.5383,0.5411,0.542,0.5433,0.5457,0.5479,0.5512,0.554,0.5556,0.5576,0.5604,0.5643,0.5634,0.565,0.5652,0.5674,0.5717,0.5661,0.5661,0.5671,0.5772,0.578,0.5788,0.5713,0.5715,0.5716,0.577,0,0.5435,0.5492,0.5494,0.5546,0.5573,0.5565,0.5593,0.5611,0.5619,0.5643,0.5652,0.568,0.5665,0.5675,0.5697,0.5707,0.5738,0.5703,0.5739,0.574,0.5734,0.5798,0.5807,0.5857,0.5777,0.5778,0.5779,0,0.5505,0.5527,0.5581,0.5601,0.5612,0.5637,0.5663,0.5686,0.5706,0.571,0.5728,0.5726,0.576,0.5737,0.5783,0.576,0.5774,0.5782,0.5784,0.5788,0.5763,0.5804,0.5873,0.5881,0.579,0.579,0.5789,0,0.5547,0.559,0.5628,0.5639,0.5663,0.5681,0.5692,0.571,0.5727,0.5749,0.576,0.5786,0.5801,0.5821,0.5827,0.581,0.5873,0.5851,0.5877,0.5877,0.5891,0.589,0.5964,0.59,0.59,0.59,0.59,0,0.5606,0.5639,0.5647,0.567,0.5707,0.571,0.5747,0.5756,0.5773,0.5798,0.5793,0.5817,0.5823,0.5848,0.5852,0.5889,0.5896,0.59,0.5901,0.5901,0.59,0.5911,0.5908,0.5902,0.5902,0.5901,0.5901,0,0.5659,0.5666,0.5706,0.5725,0.5731,0.5757,0.5774,0.5796,0.5803,0.5835,0.5843,0.5854,0.5883,0.589,0.5925,0.5928,0.5972,0.5969,0.5965,0.5965,0.5991,0.5989,0.6075,0.6086,0.6014,0.6015,0.6016,0,0.5697,0.5722,0.5743,0.5759,0.5771,0.5797,0.5814,0.5817,0.5835,0.5859,0.5879,0.5907,0.593,0.5977,0.5988,0.6015,0.6013,0.6041,0.6017,0.6016,0.6014,0.6012,0.6015,0.6046,0.6047,0.6047,0.6048,0,0.5762,0.5764,0.5788,0.5813,0.5833,0.5853,0.5872,0.5885,0.5891,0.5911,0.5941,0.5958,0.5994,0.6022,0.6048,0.606,0.6055,0.6055,0.6063,0.6063,0.606,0.6062,0.5978,0.6054,0.6053,0.6053,0.6052,0.6052,0.5809,0.5831,0.5849,0.5876,0.589,0.5908,0.593,0.5939,0.5964,0.5992,0.5993,0.6025,0.6044,0.6079,0.6092,0.6117,0.6108,0.6119,0.6122,0.6125,0.6127,0.6055,0.6122,0.6122,0.6122,0.6121,0.6121,0,0.5874,0.5885,0.591,0.5936,0.5957,0.595,0.5971,0.5989,0.6017,0.6035,0.6057,0.6091,0.6118,0.6131,0.6158,0.6176,0.6175,0.6183,0.6182,0.6185,0.6133,0.6124,0.6184,0.6184,0.6184,0.6184,0.6184,0.6184,0.5911,0.5947,0.5951,0.5995,0.6007,0.6037,0.605,0.6066,0.608,0.6118,0.614,0.6149,0.6165,0.6193,0.6218,0.6221,0.6231,0.6241,0.6243,0.6195,0.6188,0.6182,0.6174,0.6243,0.6243,0.6292,0.6293,0.6293]}]]